Regional Weather Roundup
Issued by NWS

Home | Current Version | Previous Version | Text Only | Print | Product List | Glossary On
Versions: 1 2 3 4 5 6 7 8 9 10 11 12 13 14 15 16 17 18 19 20 21 22 23 24 25 26 27 28
000
ASCA42 TJSJ 281710
RWRPR
PUERTO RICO/U.S. VIRGIN ISLANDS HOURLY WEATHER ROUNDUP
NATIONAL WEATHER SERVICE SAN JUAN PR
100 PM AST SUN AUG 28 2016

PRZ001>002-007>008-010-281800-
PUERTO RICO

CITY           SKY/WX    TMP DP  RH WIND       PRES   REMARKS
SAN JUAN LMM   MOSUNNY   86  77  74 E15G21    29.99S HX  97
AGUADILLA      SUNNY     88  73  62 E14       30.00F HX  96
CEIBA          PTSUNNY   84  75  74 E10       30.01F HX  92
$$

VIZ001>002-281800-
U.S. VIRGIN ISLANDS

CITY           SKY/WX    TMP DP  RH WIND       PRES   REMARKS
CHRISTIANSTED  MOSUNNY   88  75  66 SE10      29.99F HX  97
$$

HOURLY WEATHER ROUNDUP FOR THE NEWS MEDIA

CITY           SKY/WX    TMP DP  RH WIND       PRES   REMARKS
ORLANDO        MOSUNNY   90  75  61 E13       29.98F HX 100
NEW YORK       MOSUNNY   83  62  49 S6        30.26F
NEWARK         PTSUNNY   85  63  47 VRB7      30.24F
CHICAGO        MOSUNNY   81  69  67 NE8       30.21R
HARTFORD       SUNNY     85  58  39 SE5       30.24F
BOSTON         MOSUNNY   77  59  53 E17       30.25F
DALLAS         MOSUNNY   87  69  54 E10       30.08S HX  91
PHILADELPHIA   MOSUNNY   88  63  43 CALM      30.24F
LOS ANGELES    MOSUNNY   70  61  73 VRB6      30.03S
WASHINGTON DC  MOSUNNY   86  66  51 VRB3      30.23F



USA.gov is the U.S. government's official web portal to all federal, state and local government web resources and services.